Torna al catalogo

STARLINK-34506

AttivoComunicazioniVLEO
NORAD 64432·PAYLOAD·🇺🇸 United States

Lanciato Jun 17, 2025 da Vandenberg Space Force Base

Loading…

Prossimi Passaggi (prossime 24 ore)

TLE

AggiornatoSource: CelesTrak SupGP

Epoca: Sep 14, 2026, 22:38 UTC

1 64432C 25129W   26257.94354167  .00039697  00000+0  13806-2 0  2579
2 64432  69.9999 315.5142 0003415 269.1612 316.8448 15.29566506    13

Traccia STARLINK-34506 in tempo reale con AllMySat

Download on the App Store